CAPE
570 866 554 468 79 165 442 491 35 133 37 9 1 1 2 5 15 5 13 2 49 33 20 21 23 16 4 7 7 20 33 80 91 58 71 88 44 9
387 387 426 152 191 135 341 200 84 55 48 0 5 4 0 0 6 4 4 44 60 48 34 19 18 29 16 6 11 22 35 63 96 97 69 28 12 7
534 410 19 8 162 212 275 131 34 18 33 30 14 3 3 0 0 4 36 11 52 50 29 19 19 5 8 21 49 97 109 131 96 35 8 0 11 20
687 425 6 24 119 325 189 167 39 35 7 4 3 0 1 0 2 12 2 0 39 35 51 38 30 24 5 0 2 30 41 31 27 29 33 21 26 8
524 237 25 28 63 371 200 130 173 48 2 3 1 3 1 4 7 15 1 3 3 1 42 51 44 48 66 52 58 63 86 88 90 81 59 64 28 15
209 84 56 38 50 247 235 120 78 98 9 16 8 0 2 2 0 2 0 1 1 5 31 45 58 61 70 80 77 87 105 77 69 65 75 46 7 1
127 98 125 77 179 114 169 157 215 150 3 11 18 4 1 0 1 0 2 5 0 0 0 0 14 35 64 69 78 56 69 64 39 31 12 1 0 1
94 112 80 100 97 104 174 49 44 5 0 2 8 3 0 4 9 5 3 0 0 1 0 0 1 29 44 59 63 29 40 8 8 1 0 0 4 1
69 48 65 112 100 42 149 160 55 0 12 2 0 0 0 3 11 2 4 1 0 0 0 0 0 23 9 1 13 6 1 1 0 0 0 0 2 1
26 18 50 61 99 31 76 25 3 9 8 5 4 4 7 0 10 1 0 0 0 0 0 0 0 0 2 1 0 0 8 10 3 1 0 9 6 5
43 66 79 9 136 47 115 8 8 21 17 7 6 12 1 2 2 1 0 0 0 0 0 0 0 0 0 0 0 13 13 6 1 1 0 2 4 2
46 75 44 135 22 56 1 0 8 14 9 1 4 13 18 9 12 1 0 0 0 0 1 0 0 0 0 0 0 1 1 1 1 1 0 1 1 0
10 126 18 49 14 16 2 33 34 21 16 9 10 19 4 8 6 5 0 0 0 0 0 0 0 0 0 0 0 0 0 0 0 3 1 0 0 0
71 27 83 8 3 1 37 10 21 41 28 33 16 17 12 2 6 2 6 2 4 5 16 1 1 1 0 0 0 5 2 0 0 0 0 0 0 0
50 5 19 4 0 16 19 29 10 28 28 9 5 20 30 17 8 8 7 3 6 3 4 12 11 7 5 3 0 0 0 0 0 0 0 0 0 0
40 7 5 4 0 7 35 27 27 6 4 2 16 24 7 3 16 10 14 1 5 2 3 1 1 0 0 0 0 0 0 0 0 0 0 0 0 0
0 0 0 0 0 14 11 5 10 5 2 10 12 7 1 19 15 2 0 14 4 4 1 0 0 0 0 0 0 0 0 0 0 0 0 0 0 0
0 0 1 0 0 7 1 15 16 15 3 2 9 2 11 10 1 3 2 1 2 0 0 1 0 0 0 0 0 0 0 0 0 0 0 0 0 0
0 0 0 0 0 0 0 2 9 6 1 3 5 0 0 0 0 0 0 0 0 0 0 0 0 0 0 0 0 0 0 0 0 0 0 0 0 0
0 0 0 0 0 0 0 1 4 5 3 0 0 1 0 0 0 0 0 0 0 0 0 0 0 0 0 0 0 0 0 0 0 0 0 0 0 0
0 0 0 0 0 0 0 0 0 0 0 2 0 0 0 0 0 0 0 0 0 0 0 0 0 0 0 0 0 0 0 0 0 0 0 0 0 0
0 0 0 0 0 0 0 0 0 0 0 0 0 0 0 0 0 0 0 0 0 0 0 0 0 0 0 0 0 0 0 0 0 0 0 0 0 0
0 0 0 0 0 0 0 0 0 0 0 0 0 0 0 0 0 0 0 0 0 0 0 0 0 0 0 0 0 0 0 0 0 0 0 0 0 0
CIN
-35 -11 -9 -8 -58 -59 -25 -9 -81 -40 -78 -0 -1 -0 -10 -1 -17 -0 -0 -0 -9 -12 -18 -25 -21 -18 -17 -15 -18 -26 -17 -12 -5 -6 -7 -6 -4 -12
-15 -14 -10 -50 -33 -59 -29 -43 -61 -35 -57 -0 -1 -0 -0 -0 -4 -0 -0 -8 -9 -10 -12 -14 -16 -10 -9 -10 -10 -51 -35 -15 -5 -3 -2 -2 -14 -15
-9 -7 -12 -5 -22 -35 -24 -72 -78 -53 -44 -0 -7 -2 -3 -2 -0 -1 -7 -4 -22 -6 -7 -2 -2 -4 -10 -8 -17 -6 -2 -2 -3 -18 -33 -0 -13 -5
-4 -5 -3 -22 -22 -20 -34 -38 -92 -66 -15 -2 -0 -0 -2 -0 -4 -0 -0 -0 -0 -13 -13 -8 -8 -0 -1 -0 -27 -32 -25 -46 -30 -7 -0 -3 -8 -18
-4 -10 -76 -33 -47 -12 -29 -44 -33 -52 -2 -0 -0 -0 -1 -0 -0 -0 -0 -0 -0 -0 -1 -6 -7 -2 -1 -0 -0 -0 -1 -1 -0 -0 -3 -0 -7 -16
-2 -41 -55 -12 -28 -9 -21 -34 -50 -26 -5 -0 -0 -0 -2 -0 -0 -0 -0 -0 -2 -0 -0 -2 -5 -11 -12 -3 -0 -0 -0 -1 -0 -1 -0 -0 -1 -11
-8 -48 -20 -25 -6 -18 -17 -28 -15 -13 -9 -0 -0 -0 -0 -0 -0 -0 -0 -0 -0 -0 -0 -0 -4 -0 -6 -0 -4 -0 -0 -3 -2 -2 -0 -1 -3 -0
-22 -30 -65 -15 -11 -0 -5 -74 -79 -56 -0 -0 -0 -0 -0 -0 -0 -0 -0 -0 -0 -0 -0 -0 -0 -0 -0 -0 -1 -0 -1 -0 -0 -0 -0 -0 -0 -0
-34 -6 -57 -32 -21 -44 -1 -2 -46 -0 -1 -0 -0 -0 -0 -0 -1 -0 -0 -0 -0 -0 -0 -0 -0 -0 -0 -0 -0 -0 -0 -0 -0 -0 -0 -0 -0 -0
-59 -64 -67 -50 -16 -64 -10 -58 -38 -3 -0 -0 -0 -1 -0 -0 -0 -0 -0 -0 -0 -0 -0 -0 -0 -0 -0 -0 -0 -0 -0 -0 -0 -0 -0 -0 -0 -0
-106 -63 -32 -70 -18 -33 -14 -48 -9 -0 -1 -0 -0 -2 -1 -4 -0 -0 -0 -0 -0 -0 -0 -0 -0 -0 -0 -0 -0 -0 -0 -0 -0 -0 -0 -0 -0 -0
-3 -62 -63 -1 -112 -35 -0 -0 -0 -2 -1 -0 -0 -0 -3 -0 -0 -0 -0 -0 -0 -0 -0 -0 -0 -0 -0 -0 -0 -0 -0 -0 -0 -0 -0 -0 -0 -0
-14 -18 -35 -50 -31 -0 -0 -0 -0 -0 -0 -0 -0 -1 -0 -0 -0 -0 -0 -0 -0 -0 -0 -0 -0 -0 -0 -0 -0 -0 -0 -0 -0 -0 -0 -0 -0 -0
-79 -5 -29 -7 -0 -2 -0 -0 -0 -0 -0 -0 -0 -0 -0 -8 -0 -0 -0 -0 -0 -0 -0 -0 -0 -0 -0 -0 -0 -0 -0 -0 -0 -0 -0 -0 -0 -0
-97 -20 -0 -0 -0 -0 -0 -0 -1 -0 -0 -0 -0 -0 -0 -1 -3 -2 -1 -0 -0 -0 -0 -0 -0 -1 -0 -0 -0 -0 -0 -0 -0 -0 -0 -0 -0 -0
-4 -0 -3 -0 -0 -0 -0 -0 -0 -0 -0 -0 -0 -0 -1 -2 -0 -3 -0 -1 -0 -0 -0 -0 -0 -0 -0 -0 -0 -0 -0 -0 -0 -0 -0 -0 -0 -0
-0 -0 -0 -0 -0 -0 -0 -0 -0 -0 -0 -0 -0 -0 -0 -0 -0 -2 -0 -1 -0 -0 -0 -0 -0 -0 -0 -0 -0 -0 -0 -0 -0 -0 -0 -0 -0 -0
-0 -0 -0 -0 -0 -0 -0 -0 -0 -0 -0 -0 -0 -0 -0 -0 -0 -0 -0 -0 -0 -0 -0 -0 -0 -0 -0 -0 -0 -0 -0 -0 -0 -0 -0 -0 -0 -0
-0 -0 -0 -0 -0 -0 -0 -0 -0 -0 -0 -0 -0 -0 -0 -0 -0 -0 -0 -0 -0 -0 -0 -0 -0 -0 -0 -0 -0 -0 -0 -0 -0 -0 -0 -0 -0 -0
-0 -0 -0 -0 -0 -0 -0 -1 -0 -1 -0 -0 -0 -0 -0 -0 -0 -0 -0 -0 -0 -0 -0 -0 -0 -0 -0 -0 -0 -0 -0 -0 -0 -0 -0 -0 -0 -0
-0 -0 -0 -0 -0 -0 -0 -0 -0 -0 -1 -0 -0 -0 -0 -0 -0 -0 -0 -0 -0 -0 -0 -0 -0 -0 -0 -0 -0 -0 -0 -0 -0 -0 -0 -0 -0 -0
-0 -0 -0 -0 -0 -0 -0 -0 -0 -0 -0 -0 -0 -0 -0 -0 -0 -0 -0 -0 -0 -0 -0 -0 -0 -0 -0 -0 -0 -0 -0 -0 -0 -0 -0 -0 -0 -0
-0 -0 -0 -0 -0 -0 -0 -0 -0 -0 -0 -0 -0 -0 -0 -0 -0 -0 -0 -0 -0 -0 -0 -0 -0 -0 -0 -0 -0 -0 -0 -0 -0 -0 -0 -0 -0 -0
Wind_Speed
28 27 29 32 nan 35 37 32 nan 24 nan nan nan nan nan nan nan nan nan nan nan nan nan nan nan nan nan nan nan nan nan nan nan nan nan nan nan nan
34 32 30 32 33 34 35 32 nan nan nan nan nan nan nan nan nan nan nan nan nan nan nan nan nan nan nan nan nan nan nan nan nan nan nan nan nan nan
40 37 nan nan 35 33 36 33 nan nan nan nan nan nan nan nan nan nan nan nan nan nan nan nan nan nan nan nan nan nan 40 39 nan nan nan nan nan nan
43 40 nan nan 34 36 36 34 nan nan nan nan nan nan nan nan nan nan nan nan nan nan nan nan nan nan nan nan nan nan nan nan nan nan nan nan nan nan
42 40 nan nan nan 38 37 36 32 nan nan nan nan nan nan nan nan nan nan nan nan nan nan nan nan nan nan nan nan nan nan nan nan nan nan nan nan nan
43 nan nan nan nan 39 39 37 nan nan nan nan nan nan nan nan nan nan nan nan nan nan nan nan nan nan nan nan nan nan 51 nan nan nan nan nan nan nan
44 nan 33 nan 39 40 41 39 34 33 nan nan nan nan nan nan nan nan nan nan nan nan nan nan nan nan nan nan nan nan nan nan nan nan nan nan nan nan
nan 44 nan 40 nan 41 39 nan nan nan nan nan nan nan nan nan nan nan nan nan nan nan nan nan nan nan nan nan nan nan nan nan nan nan nan nan nan nan
nan nan nan 40 43 nan 39 39 nan nan nan nan nan nan nan nan nan nan nan nan nan nan nan nan nan nan nan nan nan nan nan nan nan nan nan nan nan nan
nan nan nan nan nan nan nan nan nan nan nan nan nan nan nan nan nan nan nan nan nan nan nan nan nan nan nan nan nan nan nan nan nan nan nan nan nan nan
nan nan nan nan 43 nan 47 nan nan nan nan nan nan nan nan nan nan nan nan nan nan nan nan nan nan nan nan nan nan nan nan nan nan nan nan nan nan nan
nan nan nan 42 nan nan nan nan nan nan nan nan nan nan nan nan nan nan nan nan nan nan nan nan nan nan nan nan nan nan nan nan nan nan nan nan nan nan
nan 43 nan nan nan nan nan nan nan nan nan nan nan nan nan nan nan nan nan nan nan nan nan nan nan nan nan nan nan nan nan nan nan nan nan nan nan nan
nan nan nan nan nan nan nan nan nan nan nan nan nan nan nan nan nan nan nan nan nan nan nan nan nan nan nan nan nan nan nan nan nan nan nan nan nan nan
nan nan nan nan nan nan nan nan nan nan nan nan nan nan nan nan nan nan nan nan nan nan nan nan nan nan nan nan nan nan nan nan nan nan nan nan nan nan
nan nan nan nan nan nan nan nan nan nan nan nan nan nan nan nan nan nan nan nan nan nan nan nan nan nan nan nan nan nan nan nan nan nan nan nan nan nan
nan nan nan nan nan nan nan nan nan nan nan nan nan nan nan nan nan nan nan nan nan nan nan nan nan nan nan nan nan nan nan nan nan nan nan nan nan nan
nan nan nan nan nan nan nan nan nan nan nan nan nan nan nan nan nan nan nan nan nan nan nan nan nan nan nan nan nan nan nan nan nan nan nan nan nan nan
nan nan nan nan nan nan nan nan nan nan nan nan nan nan nan nan nan nan nan nan nan nan nan nan nan nan nan nan nan nan nan nan nan nan nan nan nan nan
nan nan nan nan nan nan nan nan nan nan nan nan nan nan nan nan nan nan nan nan nan nan nan nan nan nan nan nan nan nan nan nan nan nan nan nan nan nan
nan nan nan nan nan nan nan nan nan nan nan nan nan nan nan nan nan nan nan nan nan nan nan nan nan nan nan nan nan nan nan nan nan nan nan nan nan nan
nan nan nan nan nan nan nan nan nan nan nan nan nan nan nan nan nan nan nan nan nan nan nan nan nan nan nan nan nan nan nan nan nan nan nan nan nan nan
nan nan nan nan nan nan nan nan nan nan nan nan nan nan nan nan nan nan nan nan nan nan nan nan nan nan nan nan nan nan nan nan nan nan nan nan nan nan
Wind_Direction
285 290 288 286 nan 288 285 282 nan 289 nan nan nan nan nan nan nan nan nan nan nan nan nan nan nan nan nan nan nan nan nan nan nan nan nan nan nan nan
275 285 288 286 287 284 288 283 nan nan nan nan nan nan nan nan nan nan nan nan nan nan nan nan nan nan nan nan nan nan nan nan nan nan nan nan nan nan
280 280 nan nan 280 280 283 283 nan nan nan nan nan nan nan nan nan nan nan nan nan nan nan nan nan nan nan nan nan nan 283 281 nan nan nan nan nan nan
275 275 nan nan 282 281 281 284 nan nan nan nan nan nan nan nan nan nan nan nan nan nan nan nan nan nan nan nan nan nan nan nan nan nan nan nan nan nan
269 274 nan nan nan 275 279 278 279 nan nan nan nan nan nan nan nan nan nan nan nan nan nan nan nan nan nan nan nan nan nan nan nan nan nan nan nan nan
268 nan nan nan nan 276 278 279 nan nan nan nan nan nan nan nan nan nan nan nan nan nan nan nan nan nan nan nan nan nan 275 nan nan nan nan nan nan nan
267 nan 267 nan 275 275 275 278 279 278 nan nan nan nan nan nan nan nan nan nan nan nan nan nan nan nan nan nan nan nan nan nan nan nan nan nan nan nan
nan 261 nan 268 nan 276 278 nan nan nan nan nan nan nan nan nan nan nan nan nan nan nan nan nan nan nan nan nan nan nan nan nan nan nan nan nan nan nan
nan nan nan 257 273 nan 273 276 nan nan nan nan nan nan nan nan nan nan nan nan nan nan nan nan nan nan nan nan nan nan nan nan nan nan nan nan nan nan
nan nan nan nan nan nan nan nan nan nan nan nan nan nan nan nan nan nan nan nan nan nan nan nan nan nan nan nan nan nan nan nan nan nan nan nan nan nan
nan nan nan nan 275 nan 268 nan nan nan nan nan nan nan nan nan nan nan nan nan nan nan nan nan nan nan nan nan nan nan nan nan nan nan nan nan nan nan
nan nan nan 266 nan nan nan nan nan nan nan nan nan nan nan nan nan nan nan nan nan nan nan nan nan nan nan nan nan nan nan nan nan nan nan nan nan nan
nan 252 nan nan nan nan nan nan nan nan nan nan nan nan nan nan nan nan nan nan nan nan nan nan nan nan nan nan nan nan nan nan nan nan nan nan nan nan
nan nan nan nan nan nan nan nan nan nan nan nan nan nan nan nan nan nan nan nan nan nan nan nan nan nan nan nan nan nan nan nan nan nan nan nan nan nan
nan nan nan nan nan nan nan nan nan nan nan nan nan nan nan nan nan nan nan nan nan nan nan nan nan nan nan nan nan nan nan nan nan nan nan nan nan nan
nan nan nan nan nan nan nan nan nan nan nan nan nan nan nan nan nan nan nan nan nan nan nan nan nan nan nan nan nan nan nan nan nan nan nan nan nan nan
nan nan nan nan nan nan nan nan nan nan nan nan nan nan nan nan nan nan nan nan nan nan nan nan nan nan nan nan nan nan nan nan nan nan nan nan nan nan
nan nan nan nan nan nan nan nan nan nan nan nan nan nan nan nan nan nan nan nan nan nan nan nan nan nan nan nan nan nan nan nan nan nan nan nan nan nan
nan nan nan nan nan nan nan nan nan nan nan nan nan nan nan nan nan nan nan nan nan nan nan nan nan nan nan nan nan nan nan nan nan nan nan nan nan nan
nan nan nan nan nan nan nan nan nan nan nan nan nan nan nan nan nan nan nan nan nan nan nan nan nan nan nan nan nan nan nan nan nan nan nan nan nan nan
nan nan nan nan nan nan nan nan nan nan nan nan nan nan nan nan nan nan nan nan nan nan nan nan nan nan nan nan nan nan nan nan nan nan nan nan nan nan
nan nan nan nan nan nan nan nan nan nan nan nan nan nan nan nan nan nan nan nan nan nan nan nan nan nan nan nan nan nan nan nan nan nan nan nan nan nan
nan nan nan nan nan nan nan nan nan nan nan nan nan nan nan nan nan nan nan nan nan nan nan nan nan nan nan nan nan nan nan nan nan nan nan nan nan nan